{"data":{"norad_id":63982,"intl_designator":"2025-100A","name":"SCS-01 A","alt_names":[],"object_type":"PAYLOAD","status":"ACTIVE","operator":null,"country":"PRC","launch_date":"2025-05-14","launch_site_code":"JSC","launch_vehicle":null,"mission":null,"orbit_class":"UNKNOWN","rcs_meters":null,"size_class":null,"mass_kg":null,"dimensions":null,"purposes":[],"wikipedia_slug":null,"has_3d_model":false,"image_url":null,"decayed_at":null,"tle_current":{"epoch":"2026-09-21T23:20:47.660640Z","epoch_age_seconds":72031,"freshness":"FRESH","line1":"1 63982U 25100A   26264.97277385  .00005188  00000+0  23201-3 0  9996","line2":"2 63982  97.3594 335.5888 0028259  30.3823 329.9043 15.21378743 75353","mean_motion":15.21378743,"eccentricity":0.0028259,"inclination_deg":97.3594,"raan_deg":335.5888,"arg_perigee_deg":30.3823,"mean_anomaly_deg":329.9043,"bstar":0.00023201,"rev_number":7535,"period_min":94.650987245981,"perigee_km":482.23925755583,"apogee_km":521.12261256119,"semimajor_km":6879.8179350585,"source":"CELESTRAK","updated_at":"2026-09-22T09:00:29.477233Z"}}}